Date String (YYYY-MM-DD hh:mm:ss) UTC,Instrument flags,Ambient pressure (hPa),Sample flow (lpm),Bypass flow (lpm),Sample temperature (°C),Ambient temperature (°C),ASC tube jacket temperature (°C),LED temperature (°C),Box temperature (°C),Sample RH (%),Span deviation,Mass concentration (μg/m³),Mass concentration (μg/m³),Mass concentration (μg/m³)
DateTimeUTC,F1_M11,P_M11,Q1_M11,Q2_M11,T1_M11,T2_M11,T3_M11,T4_M11,T5_M11,U1_M11,ZSPAN_M11,X0_M11,X2_M11,X1_M11
2021-10-08 19:00:00,,0826.2,5.00,0.00,29.5,27.4,00.0,38.7,31.2,17.4,0000.0,0015.17,0005.11,0003.72
2021-10-08 19:01:00,,0826.1,4.99,0.00,29.6,27.8,00.0,38.7,31.3,17.7,0000.0,0015.77,0005.08,0003.69
2021-10-08 19:02:00,,0826.2,5.01,0.00,29.6,28.1,00.0,38.7,31.4,17.4,0000.0,0015.60,0005.02,0003.68
2021-10-08 19:03:00,,0826.2,4.99,0.00,29.6,28.3,00.0,38.7,31.5,17.2,0000.0,0015.04,0004.99,0003.64
2021-10-08 19:04:00,,0826.1,4.99,0.00,29.7,28.5,00.0,38.7,31.5,17.3,0000.0,0014.83,0004.92,0003.64
2021-10-08 19:05:00,,0826.0,5.00,0.00,29.7,28.7,00.0,38.7,31.6,17.4,0000.0,0015.19,0004.89,0003.63
2021-10-08 19:06:00,,0826.0,5.01,0.00,29.8,28.8,00.0,38.7,31.7,17.5,0000.0,0015.23,0004.86,0003.61
2021-10-08 19:07:00,,0826.0,5.00,0.00,29.8,28.9,00.0,38.7,31.7,17.5,0000.0,0015.55,0004.85,0003.60
2021-10-08 19:08:00,,0826.0,5.01,0.00,29.9,29.0,00.0,38.8,31.8,17.5,0000.0,0015.90,0004.87,0003.60
2021-10-08 19:09:00,,0825.9,5.00,0.00,29.9,29.1,00.0,38.8,31.8,17.3,0000.0,0015.88,0004.87,0003.61
2021-10-08 19:10:00,,0825.8,4.99,0.00,29.9,29.2,00.0,38.8,31.9,17.2,0000.0,0015.16,0004.82,0003.61
2021-10-08 19:11:00,,0825.8,4.99,0.00,30.0,29.1,00.0,38.9,31.9,17.3,0000.0,0015.49,0004.81,0003.61
2021-10-08 19:12:00,,0826.0,5.00,0.00,29.9,27.4,00.0,38.8,31.4,17.1,0000.0,0015.45,0004.84,0003.63
2021-10-08 19:13:00,,0825.9,5.00,0.00,29.7,25.9,00.0,38.8,30.9,17.4,0000.0,0015.70,0004.85,0003.63
2021-10-08 19:14:00,,0825.9,5.01,0.00,29.6,26.0,00.0,38.8,30.9,17.4,0000.0,0015.89,0004.83,0003.64
2021-10-08 19:15:00,,0825.8,5.00,0.00,29.5,26.5,00.0,38.7,31.0,17.7,0000.0,0016.50,0004.91,0003.64
2021-10-08 19:16:00,,0825.8,5.00,0.00,29.5,26.9,00.0,38.7,31.1,17.9,0000.0,0016.06,0004.92,0003.64
2021-10-08 19:17:00,,0825.8,5.00,0.00,29.5,27.3,00.0,38.7,31.2,17.6,0000.0,0016.08,0004.92,0003.65
2021-10-08 19:18:00,,0825.9,5.00,0.00,29.5,27.7,00.0,38.7,31.3,17.4,0000.0,0015.58,0004.87,0003.65
2021-10-08 19:19:00,,0826.0,4.99,0.00,29.6,28.0,00.0,38.7,31.4,17.5,0000.0,0015.14,0004.85,0003.65
2021-10-08 19:20:00,,0826.0,5.01,0.00,29.6,28.3,00.0,38.7,31.4,17.4,0000.0,0016.30,0004.88,0003.64
2021-10-08 19:21:00,,0825.9,4.99,0.00,29.6,28.5,00.0,38.7,31.5,17.4,0000.0,0016.73,0004.93,0003.65
2021-10-08 19:22:00,,0826.0,5.01,0.00,29.7,28.6,00.0,38.7,31.6,17.8,0000.0,0015.68,0005.00,0003.66
2021-10-08 19:23:00,,0826.1,4.99,0.00,29.7,28.8,00.0,38.7,31.6,17.7,0000.0,0014.85,0005.04,0003.66
2021-10-08 19:24:00,,0826.2,4.99,0.00,29.8,28.9,00.0,38.7,31.7,17.4,0000.0,0014.81,0005.04,0003.66
2021-10-08 19:25:00,,0826.2,5.00,0.00,29.8,29.0,00.0,38.7,31.8,16.9,0000.0,0014.77,0005.06,0003.65
2021-10-08 19:26:00,,0826.1,5.00,0.00,29.9,29.1,00.0,38.8,31.8,16.7,0000.0,0014.38,0005.03,0003.65
2021-10-08 19:27:00,,0826.0,5.01,0.00,29.9,29.2,00.0,38.8,31.8,16.7,0000.0,0015.20,0005.05,0003.65
2021-10-08 19:28:00,,0826.0,5.01,0.00,30.0,29.3,00.0,38.8,31.9,16.7,0000.0,0014.89,0005.06,0003.64
2021-10-08 19:29:00,,0825.9,4.99,0.00,30.0,28.7,00.0,38.9,31.7,16.8,0000.0,0015.02,0005.08,0003.64
2021-10-08 19:30:00,,0825.9,4.99,0.00,29.9,26.7,00.0,38.8,31.1,17.0,0000.0,0015.33,0005.09,0003.65
2021-10-08 19:31:00,,0825.7,5.00,0.00,29.7,25.9,00.0,38.8,30.9,17.1,0000.0,0015.19,0005.10,0003.65
2021-10-08 19:32:00,,0825.6,5.01,0.00,29.6,26.3,00.0,38.8,31.0,17.1,0000.0,0015.16,0005.12,0003.67
2021-10-08 19:33:00,,0825.6,4.99,0.00,29.6,26.7,00.0,38.7,31.1,17.0,0000.0,0015.44,0005.07,0003.67
2021-10-08 19:34:00,,0825.6,4.99,0.00,29.6,27.2,00.0,38.7,31.2,17.2,0000.0,0016.29,0005.05,0003.68
2021-10-08 19:35:00,,0825.6,5.01,0.00,29.6,27.6,00.0,38.7,31.3,17.5,0000.0,0016.97,0005.11,0003.69
2021-10-08 19:36:00,,0825.6,5.00,0.00,29.6,27.9,00.0,38.7,31.4,17.4,0000.0,0016.89,0005.12,0003.72
2021-10-08 19:37:00,,0825.6,5.00,0.00,29.6,28.2,00.0,38.7,31.4,17.4,0000.3,0017.30,0005.14,0003.73
2021-10-08 19:38:00,,0825.6,5.01,0.00,29.7,28.4,00.0,38.7,31.5,17.2,0000.4,0016.52,0005.13,0003.75
2021-10-08 19:39:00,,0825.6,4.99,0.00,29.7,28.6,00.0,38.7,31.6,17.3,0000.0,0015.88,0005.15,0003.78
2021-10-08 19:40:00,,0825.6,5.00,0.00,29.8,28.8,00.0,38.7,31.6,17.3,0001.8,0016.60,0005.17,0003.80
2021-10-08 19:41:00,,0825.6,5.00,0.00,29.8,28.9,00.0,38.7,31.7,17.3,0001.6,0017.35,0005.20,0003.82
2021-10-08 19:42:00,,0825.6,5.00,0.00,29.9,29.0,00.0,38.8,31.8,17.0,0002.2,0017.29,0005.27,0003.84
2021-10-08 19:43:00,,0825.6,5.00,0.00,29.9,29.1,00.0,38.8,31.8,16.5,0001.6,0016.79,0005.27,0003.85
2021-10-08 19:44:00,,0825.7,5.00,0.00,30.0,29.1,00.0,38.8,31.8,16.5,0000.3,0017.24,0005.29,0003.87
2021-10-08 19:45:00,,0825.6,5.00,0.00,29.9,27.6,00.0,38.8,31.4,16.3,0000.5,0016.71,0005.27,0003.88
2021-10-08 19:46:00,,0825.6,5.01,0.00,29.7,26.0,00.0,38.8,30.9,16.5,0000.3,0016.45,0005.26,0003.89
2021-10-08 19:47:00,,0825.5,5.00,0.00,29.6,26.1,00.0,38.8,30.9,16.8,0000.1,0017.12,0005.31,0003.90
2021-10-08 19:48:00,,0825.5,5.00,0.00,29.5,26.5,00.0,38.7,31.0,17.0,-000.3,0016.95,0005.32,0003.91
2021-10-08 19:49:00,,0825.5,5.00,0.00,29.5,27.0,00.0,38.7,31.1,17.1,-000.3,0017.65,0005.34,0003.93
2021-10-08 19:50:00,,0825.5,5.00,0.00,29.5,27.4,00.0,38.7,31.2,17.1,0000.0,0018.95,0005.34,0003.93
2021-10-08 19:51:00,,0825.5,5.01,0.00,29.5,27.8,00.0,38.6,31.3,17.2,0000.0,0020.07,0005.37,0003.94
2021-10-08 19:52:00,,0825.4,5.00,0.00,29.6,28.1,00.0,38.6,31.4,17.0,0000.0,0019.92,0005.38,0003.95
2021-10-08 19:53:00,,0825.5,4.99,0.00,29.6,28.3,00.0,38.7,31.4,16.9,0000.0,0020.13,0005.38,0003.95
2021-10-08 19:54:00,,0825.4,5.01,0.00,29.7,28.5,00.0,38.7,31.5,17.0,0000.0,0020.27,0005.38,0003.95
2021-10-08 19:55:00,,0825.4,5.01,0.00,29.7,28.7,00.0,38.7,31.6,16.9,0000.0,0020.37,0005.46,0003.96
2021-10-08 19:56:00,,0825.3,4.99,0.00,29.7,28.8,00.0,38.7,31.7,17.0,0000.0,0020.76,0005.57,0003.96
2021-10-08 19:57:00,,0825.3,4.99,0.00,29.8,29.0,00.0,38.7,31.7,16.9,0000.0,0022.13,0005.66,0003.97
2021-10-08 19:58:00,,0825.3,4.99,0.00,29.9,29.1,00.0,38.7,31.8,16.9,0000.0,0023.26,0005.67,0003.97
2021-10-08 19:59:00,,0825.3,5.01,0.00,29.9,29.2,00.0,38.8,31.8,16.8,0000.0,0023.23,0005.66,0003.97
